カタログに戻る

NAPA-1

運用中アマチュア無線SSO
NORAD 46320·PAYLOAD·🇹🇭 Thailand

打ち上げ Sep 3, 2020 から Guiana Space Centre

Loading…

次のパス (今後24時間)

TLE

最新Source: Space-Track

元期: Sep 14, 2026, 11:44 UTC

1 46320U 20061BA  26257.48928940  .00141505  00000-0  62044-3 0  9995
2 46320  97.2332 335.4953 0001961 211.9218 148.1934 15.84248030335798

AllMySatでNAPA-1をリアルタイム追跡

Download on the App Store